Buffalo, MN

11:26 AM CDT on June 21, 2018 (GMT -0500)
Buffalo

Weather History for KCFE - November, 2017

Change the Weather History Date:

Tuesday, November 14, 2017

  Actual Average (KMIC) Record (KMIC)
Temperature  
Mean Temperature 40 °F -  
Max Temperature 43 °F 40 °F 63 °F (2001)
Min Temperature 38 °F 26 °F 8 °F (2014)
Degree Days  
Heating Degree Days 24    
Moisture  
Dew Point 39 °F    
Average Humidity 92    
Maximum Humidity 95    
Minimum Humidity 88    
Precipitation  
Precipitation 0.02 in - - ()
Sea Level Pressure  
Sea Level Pressure 29.94 in    
Wind  
Wind Speed 6 mph (SE)    
Max Wind Speed 8 mph    
Max Gust Speed -    
Visibility 3 miles    
Events Fog    
Averages and records for this station are not official NWS values.
T = Trace of Precipitation, MM = Missing Value Source: NWS Daily Summary

Daily Weather History Graph

Daily Weather History Graph

Search for Another Location

Airport or City:

Astronomy

Nov. 14, 2017 Rise Set
Actual Time 7:12 AM CST 4:46 PM CST
Civil Twilight 6:40 AM CST 5:18 PM CST
Nautical Twilight 6:05 AM CST 5:54 PM CST
Astronomical Twilight 5:30 AM CST 6:28 PM CST
Moon 3:00 AM CST (11/14) 3:23 PM CST (11/14)
Length of Visible Light 10h 37m
Length of Day
9h 34m
Waning Crescent, 13% of the Moon is Illuminated
Nov 14
Waning Crescent
Nov 18
New
Nov 26
First Quarter
Dec 3
Full
Dec 10
Last Quarter

Hourly Weather History & Observations

Time (CST) Temp. Windchill Dew Point Humidity Pressure Visibility Wind Dir Wind Speed Gust Speed Precip Events Conditions
12:15 AM 38.5 °F 32.7 °F 36.5 °F 93% 30.13 in 5.0 mi SSE 8.1 mph - N/A   Overcast
12:34 AM 38.5 °F 33.4 °F 36.5 °F 93% 30.13 in 5.0 mi SSE 6.9 mph - N/A   Overcast
12:54 AM 38.7 °F 34.3 °F 36.7 °F 93% 30.12 in 5.0 mi SSE 5.8 mph - N/A   Overcast
1:15 AM 39.0 °F 34.0 °F 37.0 °F 93% 30.11 in 5.0 mi South 6.9 mph - N/A   Overcast
1:34 AM 39.2 °F 35.0 °F 37.2 °F 93% 30.10 in 5.0 mi SSE 5.8 mph - N/A   Overcast
1:54 AM 39.2 °F 34.2 °F 37.4 °F 93% 30.09 in 5.0 mi SSE 6.9 mph - N/A   Overcast
2:15 AM 39.2 °F 35.0 °F 37.4 °F 93% 30.09 in 5.0 mi SSE 5.8 mph - N/A   Overcast
2:34 AM 39.2 °F 35.0 °F 37.4 °F 93% 30.09 in 5.0 mi SSE 5.8 mph - N/A   Overcast
2:54 AM 39.2 °F 35.9 °F 37.4 °F 93% 30.09 in 5.0 mi SSE 4.6 mph - N/A   Overcast
3:15 AM 39.4 °F 36.1 °F 37.4 °F 93% 30.08 in 7.0 mi SSE 4.6 mph - N/A   Overcast
3:34 AM 39.4 °F 34.5 °F 37.4 °F 93% 30.07 in 7.0 mi SSE 6.9 mph - N/A   Overcast
3:54 AM 39.6 °F 35.4 °F 37.4 °F 92% 30.06 in 7.0 mi SSE 5.8 mph - N/A   Overcast
4:15 AM 39.6 °F 36.3 °F 37.4 °F 92% 30.06 in 5.0 mi SSE 4.6 mph - N/A   Overcast
4:34 AM 39.6 °F 35.4 °F 37.4 °F 92% 30.06 in 5.0 mi SSE 5.8 mph - N/A   Overcast
4:54 AM 39.6 °F 35.4 °F 37.4 °F 92% 30.06 in 5.0 mi SSE 5.8 mph - N/A   Overcast
5:15 AM 39.6 °F 36.3 °F 37.6 °F 93% 30.05 in 5.0 mi SSE 4.6 mph - N/A   Overcast
5:34 AM 39.4 °F 35.2 °F 37.4 °F 93% 30.05 in 4.0 mi SSE 5.8 mph - N/A   Overcast
5:54 AM 39.4 °F 35.2 °F 37.4 °F 93% 30.04 in 3.0 mi SE 5.8 mph - N/A   Overcast
6:15 AM 39.4 °F 35.2 °F 37.6 °F 93% 30.04 in 2.5 mi SE 5.8 mph - N/A   Overcast
6:34 AM 39.2 °F 35.9 °F 37.4 °F 93% 30.03 in 1.8 mi SE 4.6 mph - N/A   Overcast
6:54 AM 39.2 °F 35.0 °F 37.4 °F 93% 30.03 in 1.5 mi SSE 5.8 mph - N/A   Overcast
7:15 AM 39.4 °F 35.2 °F 37.8 °F 94% 30.04 in 1.5 mi SSE 5.8 mph - N/A   Overcast
7:34 AM 39.6 °F 35.4 °F 37.9 °F 94% 30.04 in 1.8 mi SSE 5.8 mph - N/A   Overcast
7:54 AM 39.7 °F 35.6 °F 38.3 °F 95% 30.04 in 1.5 mi SSE 5.8 mph - N/A   Overcast
8:14 AM 39.7 °F 35.6 °F 38.3 °F 95% 30.04 in 1.8 mi SSE 5.8 mph - N/A   Overcast
8:34 AM 40.1 °F 35.3 °F 38.3 °F 93% 30.03 in 2.0 mi SE 6.9 mph - N/A   Overcast
8:54 AM 40.3 °F 36.3 °F 38.7 °F 94% 30.02 in 2.5 mi SSE 5.8 mph - N/A   Overcast
9:14 AM 40.6 °F 35.4 °F 38.8 °F 93% 30.02 in 3.0 mi SSE 8.1 mph - N/A   Overcast
9:34 AM 41.0 °F 36.4 °F 39.2 °F 93% 30.01 in 3.0 mi SSE 6.9 mph - N/A   Overcast
9:54 AM 41.0 °F 36.4 °F 39.0 °F 93% 30.00 in 3.0 mi SSE 6.9 mph - N/A   Overcast
10:14 AM 41.2 °F 36.6 °F 39.2 °F 93% 30.00 in 3.0 mi SSE 6.9 mph - N/A   Overcast
10:34 AM 41.7 °F 37.3 °F 39.6 °F 92% 30.00 in 3.0 mi SSE 6.9 mph - N/A   Overcast
10:54 AM 41.9 °F 38.2 °F 39.6 °F 91% 29.99 in 3.0 mi SE 5.8 mph - N/A   Overcast
11:14 AM 41.9 °F 38.2 °F 39.6 °F 91% 29.97 in 3.0 mi SE 5.8 mph - N/A   Overcast
11:34 AM 42.3 °F 39.4 °F 39.7 °F 91% 29.97 in 3.0 mi SE 4.6 mph - N/A   Overcast
11:55 AM 42.8 °F 38.0 °F 40.1 °F 90% 29.95 in 3.0 mi SE 8.1 mph - N/A   Overcast
12:14 PM 42.8 °F 38.6 °F 40.1 °F 90% 29.94 in 4.0 mi SE 6.9 mph - N/A   Overcast
12:34 PM 42.8 °F 38.6 °F 40.1 °F 90% 29.92 in 4.0 mi SE 6.9 mph - N/A   Overcast
12:55 PM 43.2 °F 38.4 °F 40.5 °F 90% 29.92 in 5.0 mi SSE 8.1 mph - N/A   Overcast
1:14 PM 43.7 °F 40.3 °F 40.6 °F 89% 29.91 in 5.0 mi SE 5.8 mph - N/A   Overcast
1:34 PM 43.7 °F 39.7 °F 40.6 °F 89% 29.91 in 5.0 mi SE 6.9 mph - N/A   Overcast
1:54 PM 43.7 °F 39.7 °F 40.6 °F 89% 29.90 in 5.0 mi SE 6.9 mph - N/A   Overcast
2:14 PM 43.7 °F 39.7 °F 41.0 °F 90% 29.89 in 4.0 mi SE 6.9 mph - N/A   Overcast
2:35 PM 43.7 °F 40.3 °F 41.2 °F 91% 29.88 in 5.0 mi SE 5.8 mph - N/A   Overcast
2:54 PM 43.9 °F 40.5 °F 41.0 °F 90% 29.87 in 5.0 mi SE 5.8 mph - N/A   Overcast
3:14 PM 43.9 °F 39.9 °F 41.0 °F 90% 29.86 in 5.0 mi SE 6.9 mph - N/A   Overcast
3:35 PM 43.7 °F 39.1 °F 40.6 °F 89% 29.85 in 5.0 mi SE 8.1 mph - N/A   Overcast
3:54 PM 43.7 °F 39.7 °F 40.5 °F 88% 29.85 in 4.0 mi SE 6.9 mph - N/A   Overcast
4:14 PM 43.3 °F 39.9 °F 40.5 °F 90% 29.85 in 2.5 mi SE 5.8 mph - N/A   Overcast
4:34 PM 43.0 °F 38.8 °F 40.5 °F 91% 29.84 in 2.0 mi SE 6.9 mph - N/A   Overcast
4:54 PM 42.8 °F 41.1 °F 40.3 °F 91% 29.83 in 2.5 mi SE 3.5 mph - N/A   Overcast
5:14 PM 42.6 °F 37.8 °F 40.3 °F 91% 29.83 in 2.0 mi SE 8.1 mph - N/A   Overcast
5:34 PM 42.6 °F 39.0 °F 40.5 °F 92% 29.83 in 2.0 mi SE 5.8 mph - N/A   Overcast
5:54 PM 42.4 °F 38.8 °F 40.5 °F 93% 29.83 in 2.0 mi SE 5.8 mph - N/A   Overcast
6:14 PM 42.4 °F 38.1 °F 40.5 °F 93% 29.82 in 2.0 mi SE 6.9 mph - N/A   Overcast
6:34 PM 42.4 °F 38.1 °F 40.5 °F 93% 29.81 in 2.5 mi SE 6.9 mph - N/A   Overcast
6:54 PM 42.6 °F 38.4 °F 40.6 °F 93% 29.81 in 2.5 mi SE 6.9 mph - N/A   Overcast
7:14 PM 42.8 °F 39.3 °F 41.0 °F 93% 29.81 in 2.5 mi SE 5.8 mph - N/A   Overcast
7:34 PM 42.8 °F 39.3 °F 41.0 °F 93% 29.81 in 2.5 mi SSE 5.8 mph - N/A   Overcast
7:54 PM 42.8 °F 39.3 °F 41.0 °F 93% 29.81 in 2.5 mi SE 5.8 mph - N/A   Overcast
8:14 PM 42.8 °F 41.1 °F 41.0 °F 93% 29.80 in 2.5 mi SE 3.5 mph - N/A   Overcast
8:34 PM 42.8 °F - 41.0 °F 93% 29.81 in 2.5 mi Calm Calm - N/A   Drizzle
8:54 PM 42.8 °F - 41.0 °F 93% 29.81 in 2.0 mi Calm Calm - 0.01 in   Drizzle
9:14 PM 42.8 °F - 41.0 °F 93% 29.80 in 2.0 mi Calm Calm - N/A   Drizzle
9:34 PM 42.8 °F 41.1 °F 41.0 °F 93% 29.79 in 2.0 mi ESE 3.5 mph - N/A   Light Drizzle
9:54 PM 42.8 °F - 41.0 °F 93% 29.79 in 2.0 mi Calm Calm - N/A   Overcast
10:14 PM 42.8 °F - 41.2 °F 94% 29.79 in 2.5 mi Calm Calm - N/A   Overcast
10:34 PM 42.8 °F - 41.2 °F 94% 29.79 in 2.5 mi Calm Calm - 0.01 in   Overcast
10:54 PM 43.2 °F - 41.5 °F 94% 29.78 in 2.5 mi Calm Calm - 0.01 in   Overcast
11:14 PM 42.8 °F - 41.0 °F 93% 29.78 in 1.0 mi Calm Calm - N/A   Light Drizzle
11:34 PM 42.4 °F - 41.0 °F 95% 29.79 in 0.5 mi Calm Calm - N/A Fog Fog
11:54 PM 42.8 °F - 41.2 °F 94% 29.79 in 0.8 mi Calm Calm - N/A   Overcast